STARLINK-33850 (63679 NORAD) Tracking and Keplerian Element Data

This shows tracking and keplerian element data for the satellite.

Feedback or suggestion? Click here.




ElementValue
Catalog63679
NameSTARLINK-33850
Epoch Orbit3668
Epoch Day354.07022366
Epoch Year2025
RAAN120.5282
Inclination43.0021
Eccentricity0.0003846
Argument of Perigee263.998
Mean Anonmoly96.0433
Mean Motion15.27590818
Decay Rate0.00013709
L11 63679U 25085R 25354.07022366 .00013709 00000+0 50655-3 0 9999
L22 63679 43.0021 120.5282 0003846 263.9980 96.0433 15.27590818 36685



Live tracking and technical data element details for STARLINK-33850 (NORAD 63679). STARLINK-33850 can be tracked NOW for your location showing map with azimuth and elevation plus other details from your city location.







IsCatalogInMostPopularTable: catalog: 63679, numindb: 2
Update: records affected: 1



GetName: 63679 STARLINK-33850

Hit Count: updated at: Tue, 10 Feb 2026 02:58:42 GMT